SCP
0 0 0 0 0 0 0 0 0 -0 -0 0 0 0 0 0 0 0 0 0 0 -0 -0 -0 0 0 -0 -0 -0 0 0 0 0 0 0 0 0 0
0 0 0 0 0 0 0 0 0 0 -0 0 0 0 0 0 0 0 0 0 -0 -0 -0 -0 -0 -0 -0 -0 -0 -0 0 0 0 0 0 0 0 0
0 0 0 0 0 0 0 0 0 0 -0 0 0 0 0 0 0 0 0 0 0 -0 -0 -0 -0 -0 -0 -0 -0 -0 -0 0 0 0 0 0 0 0
0 0 0 0 0 0 0 0 0 0 0 -0 0 0 0 0 -0 -0 -0 0 0 0 -0 -0 -0 -0 -0 -0 -0 -0 -0 -0 0 0 0 0 0 0
0 0 0 0 0 0 0 0 0 0 0 0 0 0 0 0 0 0 0 0 0 0 0 -0 -0 -0 -0 0 -0 -0 -0 -0 0 0 0 0 0 0
0 0 0 0 0 0 0 0 0 0 0 0 0 0 0 0 0 0 0 0 0 0 0 0 0 0 0 0 -0 -0 -0 0 0 0 0 0 0 0
0 0 0 0 0 0 0 0 0 0 0 0 0 0 0 0 0 0 0 0 0 0 0 0 0 0 0 0 -0 -0 -0 -0 -0 0 0 0 0 0
0 0 0 0 0 0 0 0 0 0 0 0 0 0 0 0 0 0 0 0 0 0 0 0 0 0 0 0 0 -0 -0 0 0 0 0 0 0 0
0 0 0 0 0 0 0 0 0 0 0 0 0 0 0 0 0 0 0 0 0 0 0 0 0 0 0 0 0 0 0 0 0 0 0 0 0 0
0 0 0 0 0 0 0 0 0 0 0 0 0 0 0 0 0 0 0 0 0 0 0 0 0 0 0 0 0 0 0 0 0 0 0 0 0 0
0 0 0 0 0 0 0 0 0 0 0 0 0 0 0 0 0 0 0 0 0 0 0 0 0 0 0 0 0 0 0 0 0 0 0 0 0 0
0 0 0 0 0 0 0 0 0 0 0 0 0 0 0 0 0 0 0 0 0 0 0 0 0 0 0 0 0 0 0 0 0 0 0 0 0 0
0 0 0 0 0 0 0 0 0 0 0 0 0 0 0 0 0 0 0 0 0 0 0 0 0 0 0 0 0 0 0 0 0 0 0 0 0 0
0 0 0 0 0 0 0 0 0 0 0 0 0 0 0 0 0 0 0 0 0 0 0 0 0 0 0 0 0 0 0 0 0 0 0 0 0 0
0 0 0 0 0 0 0 0 0 0 0 0 0 0 0 0 0 0 0 0 0 0 0 0 0 0 0 0 0 0 0 0 0 -0 0 0 0 0
0 0 0 0 0 0 0 0 0 0 0 0 0 0 0 0 0 0 0 0 0 0 0 0 0 0 0 0 0 0 0 0 0 0 0 0 0 0
0 0 0 0 0 0 0 0 0 0 0 0 0 0 0 0 0 0 0 0 0 0 0 0 0 0 0 0 0 0 0 0 0 0 0 0 0 0
0 0 0 0 0 0 0 0 0 0 0 0 0 0 0 0 0 0 0 0 0 0 0 0 0 0 0 0 0 0 0 0 0 0 0 0 0 0
0 0 0 0 0 0 0 0 0 0 0 0 0 0 0 0 0 0 0 0 0 0 0 0 0 0 0 0 0 0 0 0 0 0 0 0 0 0
0 0 0 0 0 0 0 0 0 0 0 0 0 0 0 0 0 0 0 0 0 0 0 0 0 0 0 0 0 0 0 -0 0 0 0 -0 -0 -0
0 0 0 0 0 0 0 0 0 0 0 0 0 0 0 0 0 0 0 0 0 0 0 0 0 0 0 0 0 0 0 0 0 0 0 0 0 -0
0 0 0 0 0 0 0 0 0 0 0 0 0 0 0 0 0 0 0 0 0 0 0 0 0 0 0 0 0 0 0 0 0 0 -0 -0 -0 -0
0 0 0 0 0 0 0 0 0 0 0 0 0 0 0 0 0 0 0 0 0 0 0 0 0 0 0 0 0 0 0 0 0 0 0 0 0 0
Wind_Speed_500mb
22 22 18 16 12 12 13 13 14 18 23 20 23 30 34 27 18 16 18 15 20 18 25 29 29 29 35 37 36 23 28 28 22 27 26 21 18 21
25 24 25 24 22 20 18 17 19 21 20 25 27 28 20 15 15 16 16 16 19 26 34 41 36 32 31 29 28 20 26 19 18 25 26 21 16 14
27 26 27 24 23 22 21 21 20 23 26 29 28 27 23 21 22 24 27 30 33 36 41 36 29 22 17 24 23 20 18 13 16 24 29 23 19 14
30 30 29 29 30 27 25 23 22 23 26 30 28 26 22 24 26 31 35 33 34 32 27 25 23 16 16 21 25 21 16 14 13 20 22 23 19 16
27 31 22 24 26 26 24 22 20 23 24 22 19 23 26 26 25 24 24 25 24 20 20 18 16 17 20 24 26 26 23 22 24 24 29 19 16 14
27 30 31 27 21 20 22 21 22 23 22 22 26 27 22 22 26 28 24 23 20 18 22 20 18 19 22 25 29 31 30 27 26 25 25 23 20 21
29 29 35 32 28 29 28 27 26 24 25 27 26 22 23 26 29 30 27 23 22 21 23 23 22 19 17 19 23 26 27 28 28 27 23 22 25 28
33 31 35 38 38 33 29 27 28 30 25 28 29 26 26 27 26 26 24 23 21 21 25 23 22 16 17 21 23 25 28 28 27 24 22 25 27 29
29 28 32 34 37 37 36 35 32 26 26 31 31 32 31 30 26 19 14 17 20 22 24 21 17 13 14 15 19 22 25 23 22 21 23 23 24 25
33 40 34 35 33 32 32 30 29 31 32 34 34 35 31 24 18 15 12 11 17 20 26 25 19 13 8 16 20 24 27 26 23 21 18 16 16 20
36 38 35 36 34 38 35 35 35 34 34 34 30 25 21 18 17 14 12 13 16 26 30 29 26 19 10 20 21 32 36 32 30 28 26 23 23 23
40 40 39 40 44 38 31 29 27 25 24 22 18 16 15 15 15 16 18 21 24 26 25 25 25 27 11 23 24 38 30 31 30 31 31 33 32 32
32 31 31 29 23 16 13 14 15 15 17 17 17 18 17 17 19 24 28 30 29 27 26 27 24 23 19 26 29 30 33 35 35 32 28 34 37 39
25 23 22 21 20 16 10 8 8 11 16 19 21 21 21 22 28 32 33 30 28 25 23 25 27 30 31 31 32 36 36 37 37 36 48 47 42 39
30 31 27 23 20 10 3 8 10 16 18 22 25 28 28 27 24 25 24 22 19 21 25 27 27 29 29 31 34 39 44 45 43 56 50 49 48 46
22 16 7 8 6 6 4 9 15 22 23 27 28 28 24 21 18 17 16 15 16 18 19 23 25 25 26 27 27 31 36 38 42 45 45 43 44 46
8 10 14 15 12 13 19 20 24 26 26 25 22 21 19 15 13 12 12 14 15 15 15 14 19 22 22 21 23 30 39 42 43 46 47 45 46 49
9 7 13 18 17 20 22 23 24 24 23 21 17 14 12 11 9 12 14 16 19 24 26 29 28 21 18 25 24 35 40 46 49 51 53 55 53 51
16 18 21 24 23 22 22 22 19 17 15 12 10 9 7 9 12 13 16 19 20 22 26 29 32 32 31 29 16 36 45 48 49 48 51 52 51 50
18 23 24 19 17 16 15 15 13 13 10 7 5 7 9 11 14 17 19 21 24 26 26 29 31 30 31 32 36 35 34 38 41 43 44 48 43 45
24 26 20 15 13 15 14 11 9 8 6 3 4 8 12 15 19 22 23 24 25 25 26 28 28 25 26 25 27 30 30 36 37 38 41 47 51 36
24 22 17 15 14 15 14 9 8 7 3 6 10 13 15 18 20 23 24 24 24 24 24 26 28 27 29 30 29 32 31 21 25 30 41 44 43 35
17 20 19 18 16 15 15 14 12 8 7 6 11 13 14 17 19 21 21 21 20 18 20 23 26 24 26 30 33 32 34 36 37 31 37 39 36 38
Wind_Direction_500mb
258 256 265 275 280 290 304 319 327 334 333 338 343 345 351 1 7 356 359 349 351 343 351 348 339 328 321 321 326 321 334 344 350 354 353 355 358 8
259 260 260 261 263 274 289 297 301 304 304 321 329 332 341 348 357 359 360 342 334 336 333 329 329 333 336 344 347 344 346 353 355 2 358 355 355 2
258 257 258 257 254 263 270 283 293 295 299 305 312 317 313 313 324 330 326 321 323 325 324 328 334 339 339 349 354 344 327 344 3 7 4 358 354 352
259 260 265 263 262 261 267 280 290 296 300 303 308 306 312 309 313 317 323 323 322 321 326 328 331 331 321 342 350 337 330 331 329 342 346 355 354 352
256 250 260 257 262 261 259 268 278 291 294 298 303 311 315 316 315 321 327 331 328 328 330 329 313 313 314 322 318 327 327 325 319 318 318 323 333 333
258 250 244 258 259 261 261 265 270 276 285 288 299 308 312 317 321 327 336 349 347 358 0 2 338 319 313 313 312 318 320 323 327 321 308 310 308 311
259 260 251 248 259 263 269 264 273 272 279 287 294 296 308 313 318 325 338 352 340 357 0 1 5 356 353 343 342 340 336 334 333 327 317 311 309 310
263 261 259 253 252 262 259 261 274 280 278 282 287 285 297 305 310 317 337 350 356 5 16 25 20 25 18 16 8 358 355 354 354 348 337 324 317 315
256 257 270 266 251 254 265 268 274 273 278 281 284 284 292 296 301 310 338 346 351 357 4 5 36 19 9 3 4 4 3 4 6 2 358 353 347 340
272 255 267 265 249 255 264 266 270 274 276 274 273 279 286 290 296 308 319 331 330 334 341 343 344 12 318 320 316 340 345 346 343 338 337 341 342 343
255 255 262 263 259 255 260 264 267 269 272 276 279 282 285 287 290 293 300 306 320 324 329 333 329 334 301 277 299 329 331 331 330 327 325 314 310 314
246 246 250 251 256 260 261 261 260 261 265 270 274 271 273 279 280 282 292 306 316 320 315 325 326 335 322 279 291 310 320 329 332 332 329 327 322 313
242 241 241 238 237 242 250 257 256 261 260 253 258 260 260 267 279 292 301 308 315 316 320 330 332 330 326 312 313 318 325 327 328 329 331 331 328 325
232 219 211 213 202 184 185 227 228 240 235 238 244 252 262 277 290 298 302 305 308 312 320 324 322 322 322 322 320 318 327 327 326 326 330 329 328 326
233 232 227 230 206 168 185 236 238 242 242 246 255 266 275 283 288 294 299 303 303 308 315 317 321 321 320 321 321 322 327 331 330 330 329 332 332 330
244 203 215 198 209 151 240 282 263 246 249 257 266 272 273 278 286 287 293 297 296 303 307 313 318 320 320 320 321 322 324 328 323 324 327 334 335 336
269 243 217 220 207 241 250 243 243 246 253 257 261 267 278 286 291 293 299 307 308 314 323 335 339 339 335 332 331 331 335 335 339 340 338 342 345 344
272 261 254 231 216 224 232 241 246 255 256 254 258 259 264 278 302 321 330 334 336 335 337 336 338 346 352 350 348 343 344 344 347 348 347 346 346 348
248 230 225 225 231 237 245 248 246 249 244 249 250 262 293 328 339 337 340 340 338 337 339 339 342 346 348 356 358 349 343 343 344 344 344 344 345 350
241 240 232 230 235 235 235 235 235 227 230 251 280 311 327 337 336 337 340 340 345 348 350 352 353 356 358 353 348 0 355 355 355 352 349 349 346 350
208 211 221 234 252 266 259 239 236 228 227 244 309 333 341 339 341 342 341 343 346 348 350 353 357 356 355 356 6 25 30 24 7 357 354 353 354 353
211 216 223 243 256 256 247 233 221 227 274 326 331 336 340 341 339 337 336 337 341 348 356 357 357 9 21 24 11 5 6 14 15 26 25 25 16 2
225 235 243 248 244 240 237 227 221 228 253 276 303 316 325 329 329 328 327 333 341 352 2 6 12 26 22 13 1 354 0 360 10 7 11 7 4 4
Wind_Speed_850mb
22 22 18 16 12 12 13 13 14 18 23 20 23 30 34 27 18 16 18 15 20 18 25 29 29 29 35 37 36 23 28 28 22 27 26 21 18 21
25 24 25 24 22 20 18 17 19 21 20 25 27 28 20 15 15 16 16 16 19 26 34 41 36 32 31 29 28 20 26 19 18 25 26 21 16 14
27 26 27 24 23 22 21 21 20 23 26 29 28 27 23 21 22 24 27 30 33 36 41 36 29 22 17 24 23 20 18 13 16 24 29 23 19 14
30 30 29 29 30 27 25 23 22 23 26 30 28 26 22 24 26 31 35 33 34 32 27 25 23 16 16 21 25 21 16 14 13 20 22 23 19 16
27 31 22 24 26 26 24 22 20 23 24 22 19 23 26 26 25 24 24 25 24 20 20 18 16 17 20 24 26 26 23 22 24 24 29 19 16 14
27 30 31 27 21 20 22 21 22 23 22 22 26 27 22 22 26 28 24 23 20 18 22 20 18 19 22 25 29 31 30 27 26 25 25 23 20 21
29 29 35 32 28 29 28 27 26 24 25 27 26 22 23 26 29 30 27 23 22 21 23 23 22 19 17 19 23 26 27 28 28 27 23 22 25 28
33 31 35 38 38 33 29 27 28 30 25 28 29 26 26 27 26 26 24 23 21 21 25 23 22 16 17 21 23 25 28 28 27 24 22 25 27 29
29 28 32 34 37 37 36 35 32 26 26 31 31 32 31 30 26 19 14 17 20 22 24 21 17 13 14 15 19 22 25 23 22 21 23 23 24 25
33 40 34 35 33 32 32 30 29 31 32 34 34 35 31 24 18 15 12 11 17 20 26 25 19 13 8 16 20 24 27 26 23 21 18 16 16 20
36 38 35 36 34 38 35 35 35 34 34 34 30 25 21 18 17 14 12 13 16 26 30 29 26 19 10 20 21 32 36 32 30 28 26 23 23 23
40 40 39 40 44 38 31 29 27 25 24 22 18 16 15 15 15 16 18 21 24 26 25 25 25 27 11 23 24 38 30 31 30 31 31 33 32 32
32 31 31 29 23 16 13 14 15 15 17 17 17 18 17 17 19 24 28 30 29 27 26 27 24 23 19 26 29 30 33 35 35 32 28 34 37 39
25 23 22 21 20 16 10 8 8 11 16 19 21 21 21 22 28 32 33 30 28 25 23 25 27 30 31 31 32 36 36 37 37 36 48 47 42 39
30 31 27 23 20 10 3 8 10 16 18 22 25 28 28 27 24 25 24 22 19 21 25 27 27 29 29 31 34 39 44 45 43 56 50 49 48 46
22 16 7 8 6 6 4 9 15 22 23 27 28 28 24 21 18 17 16 15 16 18 19 23 25 25 26 27 27 31 36 38 42 45 45 43 44 46
8 10 14 15 12 13 19 20 24 26 26 25 22 21 19 15 13 12 12 14 15 15 15 14 19 22 22 21 23 30 39 42 43 46 47 45 46 49
9 7 13 18 17 20 22 23 24 24 23 21 17 14 12 11 9 12 14 16 19 24 26 29 28 21 18 25 24 35 40 46 49 51 53 55 53 51
16 18 21 24 23 22 22 22 19 17 15 12 10 9 7 9 12 13 16 19 20 22 26 29 32 32 31 29 16 36 45 48 49 48 51 52 51 50
18 23 24 19 17 16 15 15 13 13 10 7 5 7 9 11 14 17 19 21 24 26 26 29 31 30 31 32 36 35 34 38 41 43 44 48 43 45
24 26 20 15 13 15 14 11 9 8 6 3 4 8 12 15 19 22 23 24 25 25 26 28 28 25 26 25 27 30 30 36 37 38 41 47 51 36
24 22 17 15 14 15 14 9 8 7 3 6 10 13 15 18 20 23 24 24 24 24 24 26 28 27 29 30 29 32 31 21 25 30 41 44 43 35
17 20 19 18 16 15 15 14 12 8 7 6 11 13 14 17 19 21 21 21 20 18 20 23 26 24 26 30 33 32 34 36 37 31 37 39 36 38
Wind_Direction_850mb
258 256 265 275 280 290 304 319 327 334 333 338 343 345 351 1 7 356 359 349 351 343 351 348 339 328 321 321 326 321 334 344 350 354 353 355 358 8
259 260 260 261 263 274 289 297 301 304 304 321 329 332 341 348 357 359 360 342 334 336 333 329 329 333 336 344 347 344 346 353 355 2 358 355 355 2
258 257 258 257 254 263 270 283 293 295 299 305 312 317 313 313 324 330 326 321 323 325 324 328 334 339 339 349 354 344 327 344 3 7 4 358 354 352
259 260 265 263 262 261 267 280 290 296 300 303 308 306 312 309 313 317 323 323 322 321 326 328 331 331 321 342 350 337 330 331 329 342 346 355 354 352
256 250 260 257 262 261 259 268 278 291 294 298 303 311 315 316 315 321 327 331 328 328 330 329 313 313 314 322 318 327 327 325 319 318 318 323 333 333
258 250 244 258 259 261 261 265 270 276 285 288 299 308 312 317 321 327 336 349 347 358 0 2 338 319 313 313 312 318 320 323 327 321 308 310 308 311
259 260 251 248 259 263 269 264 273 272 279 287 294 296 308 313 318 325 338 352 340 357 0 1 5 356 353 343 342 340 336 334 333 327 317 311 309 310
263 261 259 253 252 262 259 261 274 280 278 282 287 285 297 305 310 317 337 350 356 5 16 25 20 25 18 16 8 358 355 354 354 348 337 324 317 315
256 257 270 266 251 254 265 268 274 273 278 281 284 284 292 296 301 310 338 346 351 357 4 5 36 19 9 3 4 4 3 4 6 2 358 353 347 340
272 255 267 265 249 255 264 266 270 274 276 274 273 279 286 290 296 308 319 331 330 334 341 343 344 12 318 320 316 340 345 346 343 338 337 341 342 343
255 255 262 263 259 255 260 264 267 269 272 276 279 282 285 287 290 293 300 306 320 324 329 333 329 334 301 277 299 329 331 331 330 327 325 314 310 314
246 246 250 251 256 260 261 261 260 261 265 270 274 271 273 279 280 282 292 306 316 320 315 325 326 335 322 279 291 310 320 329 332 332 329 327 322 313
242 241 241 238 237 242 250 257 256 261 260 253 258 260 260 267 279 292 301 308 315 316 320 330 332 330 326 312 313 318 325 327 328 329 331 331 328 325
232 219 211 213 202 184 185 227 228 240 235 238 244 252 262 277 290 298 302 305 308 312 320 324 322 322 322 322 320 318 327 327 326 326 330 329 328 326
233 232 227 230 206 168 185 236 238 242 242 246 255 266 275 283 288 294 299 303 303 308 315 317 321 321 320 321 321 322 327 331 330 330 329 332 332 330
244 203 215 198 209 151 240 282 263 246 249 257 266 272 273 278 286 287 293 297 296 303 307 313 318 320 320 320 321 322 324 328 323 324 327 334 335 336
269 243 217 220 207 241 250 243 243 246 253 257 261 267 278 286 291 293 299 307 308 314 323 335 339 339 335 332 331 331 335 335 339 340 338 342 345 344
272 261 254 231 216 224 232 241 246 255 256 254 258 259 264 278 302 321 330 334 336 335 337 336 338 346 352 350 348 343 344 344 347 348 347 346 346 348
248 230 225 225 231 237 245 248 246 249 244 249 250 262 293 328 339 337 340 340 338 337 339 339 342 346 348 356 358 349 343 343 344 344 344 344 345 350
241 240 232 230 235 235 235 235 235 227 230 251 280 311 327 337 336 337 340 340 345 348 350 352 353 356 358 353 348 0 355 355 355 352 349 349 346 350
208 211 221 234 252 266 259 239 236 228 227 244 309 333 341 339 341 342 341 343 346 348 350 353 357 356 355 356 6 25 30 24 7 357 354 353 354 353
211 216 223 243 256 256 247 233 221 227 274 326 331 336 340 341 339 337 336 337 341 348 356 357 357 9 21 24 11 5 6 14 15 26 25 25 16 2
225 235 243 248 244 240 237 227 221 228 253 276 303 316 325 329 329 328 327 333 341 352 2 6 12 26 22 13 1 354 0 360 10 7 11 7 4 4